Regional Weather Roundup
Issued by NWS

Home | Current Version | Previous Version | Text Only | Print | Product List | Glossary Off
Versions: 1 2 3 4 5 6 7 8 9 10 11 12 13 14 15 16 17 18 19 20 21 22 23 24 25 26 27 28 29 30 31 32 33 34 35 36 37 38 39 40 41 42 43 44 45 46 47 48 49 50

000
ASUS43 KOAX 280910
RWRNE

WEATHER ROUNDUP FOR NEBRASKA
NATIONAL WEATHER SERVICE OMAHA NE
400 AM CDT WED SEP 28 2016

NOTES: SATELLITE DATA IS BEING USED TO AUGMENT CLOUD COVER ABOVE
       12000 FEET.
       "FAIR" INDICATES FEW OR NO CLOUDS BELOW 12,000 FEET WITH NO
       SIGNIFICANT WEATHER AND/OR OBSTRUCTIONS TO VISIBILITY.

  * THESE STATIONS DO NOT REPORT WEATHER SUCH AS RAIN...SNOW OR FOG.

NEZ001>004-019>022-054>056-281000-
NEBRASKA PANHANDLE

CITY           SKY/WX    TMP DP  RH WIND       PRES   REMARKS
SCOTTSBLUFF    CLEAR     51  40  65 NW10      30.18R
ALLIANCE       CLEAR     43  39  86 CALM      30.16R
CHADRON        CLEAR     45  41  86 W6        30.15R
KIMBALL        CLEAR     46  37  70 NW8       30.22S
SIDNEY         CLEAR     45  38  76 NW6       30.19R
$$

NEZ057>060-069>072-079>082-281000-
SOUTHWEST NEBRASKA

CITY           SKY/WX    TMP DP  RH WIND       PRES   REMARKS
NORTH PLATTE   CLEAR     43  40  89 NW5       30.09R
IMPERIAL       CLEAR     51  37  58 N6        30.11S
LEXINGTON      CLEAR     46  42  85 NW5       30.06R
MCCOOK         CLEAR     46  42  86 SW8       30.07R
OGALLALA       CLEAR     43  40  86 W6        30.12S
$$

NEZ005>010-023>029-035>040-094-281000-
NORTH CENTRAL NEBRASKA

CITY           SKY/WX    TMP DP  RH WIND       PRES   REMARKS
VALENTINE      CLEAR     43  38  82 W5        30.10R
AINSWORTH      CLEAR     47  42  82 W5        30.09R
BROKEN BOW     CLEAR     46  41  82 CALM      30.06R
O`NEILL        CLEAR     46  41  84 NW8       30.07R
ORD            CLEAR     48  42  80 NW6       30.04R
THEDFORD       CLEAR     47  42  85 W6        30.10R
$$

NEZ041-046>049-061>064-073>077-083>087-281000-
SOUTH CENTRAL NEBRASKA

CITY           SKY/WX    TMP DP  RH WIND       PRES   REMARKS
GRAND ISLAND   CLEAR     50  45  83 N9        30.02R
AURORA         CLEAR     51  48  88 NW8       30.01R
HASTINGS       CLEAR     53  44  71 N6        30.02R
HEBRON         CLEAR     53  47  81 CALM      29.97R
HOLDREGE       CLEAR     51  43  76 NW7       30.04R
KEARNEY *      CLEAR     52  41  66 NW8       30.03R
YORK           CLEAR     50  46  87 N6        30.00R
$$

NEZ011>018-030>034-042>045-281000-
NORTHEAST NEBRASKA

CITY           SKY/WX    TMP DP  RH WIND       PRES   REMARKS
NORFOLK        CLEAR     47  40  76 NW7       30.02R
ALBION         CLEAR     46  43  88 NW5       30.03R
BLAIR          CLEAR     53  43  69 N8        29.97R
FREMONT        CLEAR     50  44  79 N3        29.99R
TEKAMAH        PTCLDY    47  41  80 N9        29.99R
WAYNE          CLEAR     42  39  91 N5        30.02R
$$

NEZ050>053-065>068-078-088>093-281000-
SOUTHEAST NEBRASKA

CITY           SKY/WX    TMP DP  RH WIND       PRES   REMARKS
LINCOLN        CLEAR     50  46  86 N7        29.98R
OMAHA EPPLEY   CLEAR     50  45  83 N9        29.96R
BEATRICE       CLEAR     56  49  77 N9        29.95R
FALLS CITY     CLEAR     54  50  86 NW8       29.90R
NEBRASKA CITY  CLEAR     56  41  56 N7        29.94R
PLATTSMOUTH    PTCLDY    55  44  67 N5        29.95R
$$

NEZ044-045-051>053-067-281000-
OMAHA AREA

CITY           SKY/WX    TMP DP  RH WIND       PRES   REMARKS
OMAHA EPPLEY   CLEAR     50  45  83 N9        29.96R
BLAIR          CLEAR     53  43  69 N8        29.97R
FREMONT        CLEAR     50  44  79 N3        29.99R
MILLARD        CLEAR     57  44  63 N5        29.96R
OFFUTT AFB     CLEAR     56  45  65 N7        29.95R
PLATTSMOUTH    PTCLDY    55  44  67 N5        29.95R
WAHOO          FAIR      51  46  82 NW5       29.97S
$$




USA.gov is the U.S. government's official web portal to all federal, state and local government web resources and services.